owner,sensor,date,latitude,longitude,vertical_datum,wind_speed,wind_to_direction,wind_speed_of_gust,qcFlag 
ADCP,ioos:station:wmo:42887:1,2011-07-01T00:00:00Z,28.1910,-88.4960,48.2,1.6,223.0,99.0,'11111222,11111222,11144222' 
ADCP,ioos:station:wmo:42887:1,2011-07-01T00:20:00Z,28.1910,-88.4960,48.2,1.7,242.0,99.0,'11111222,11111222,11144222' 
ADCP,ioos:station:wmo:42887:1,2011-07-01T00:40:00Z,28.1910,-88.4960,48.2,2.1,247.0,99.0,'11111222,11111222,11144222' 
ADCP,ioos:station:wmo:42887:1,2011-07-01T01:00:00Z,28.1910,-88.4960,48.2,2.3,214.0,99.0,'11111222,11111222,11144222' 
ADCP,ioos:station:wmo:42887:1,2011-07-01T01:20:00Z,28.1910,-88.4960,48.2,2.0,205.0,99.0,'11111222,11111222,11144222' 
ADCP,ioos:station:wmo:42887:1,2011-07-01T01:40:00Z,28.1910,-88.4960,48.2,1.8,204.0,99.0,'11111222,11111222,11144222' 
ADCP,ioos:station:wmo:42887:1,2011-07-01T02:00:00Z,28.1910,-88.4960,48.2,1.6,198.0,99.0,'11111222,11111222,11144222' 
ADCP,ioos:station:wmo:42887:1,2011-07-01T02:20:00Z,28.1910,-88.4960,48.2,1.6,204.0,99.0,'11111222,11111222,11144222' 
ADCP,ioos:station:wmo:42887:1,2011-07-01T02:40:00Z,28.1910,-88.4960,48.2,2.0,210.0,99.0,'11111222,11111222,11144222' 
ADCP,ioos:station:wmo:42887:1,2011-07-01T03:00:00Z,28.1910,-88.4960,48.2,1.1,197.0,99.0,'11111222,11111222,11144222' 
ADCP,ioos:station:wmo:42887:1,2011-07-01T03:40:00Z,28.1910,-88.4960,48.2,1.0,231.0,99.0,'11111222,11111222,11144222' 
ADCP,ioos:station:wmo:42887:1,2011-07-01T04:00:00Z,28.1910,-88.4960,48.2,0.6,205.0,99.0,'11111222,11111222,11144222' 
ADCP,ioos:station:wmo:42887:1,2011-07-01T04:20:00Z,28.1910,-88.4960,48.2,0.3,229.0,99.0,'11111222,11111222,11144222' 
ADCP,ioos:station:wmo:42887:1,2011-07-01T04:40:00Z,28.1910,-88.4960,48.2,0.6,241.0,99.0,'11111222,11111222,11144222' 
ADCP,ioos:station:wmo:42887:1,2011-07-01T05:00:00Z,28.1910,-88.4960,48.2,0.7,289.0,99.0,'11111222,11111222,11144222' 
ADCP,ioos:station:wmo:42887:1,2011-07-01T05:20:00Z,28.1910,-88.4960,48.2,0.3,221.0,99.0,'11111222,11111222,11144222' 
ADCP,ioos:station:wmo:42887:1,2011-07-01T05:40:00Z,28.1910,-88.4960,48.2,1.3,253.0,99.0,'11111222,11111222,11144222' 
ADCP,ioos:station:wmo:42887:1,2011-07-01T06:00:00Z,28.1910,-88.4960,48.2,2.0,278.0,99.0,'11111222,11111222,11144222' 
ADCP,ioos:station:wmo:42887:1,2011-07-01T06:20:00Z,28.1910,-88.4960,48.2,1.2,274.0,99.0,'11111222,11111222,11144222' 
ADCP,ioos:station:wmo:42887:1,2011-07-01T06:40:00Z,28.1910,-88.4960,48.2,1.2,259.0,99.0,'11111222,11111222,11144222' 
ADCP,ioos:station:wmo:42887:1,2011-07-01T07:00:00Z,28.1910,-88.4960,48.2,1.6,271.0,99.0,'11111222,11111222,11144222' 
ADCP,ioos:station:wmo:42887:1,2011-07-01T07:20:00Z,28.1910,-88.4960,48.2,2.5,276.0,99.0,'11111222,11111222,11144222' 
ADCP,ioos:station:wmo:42887:1,2011-07-01T07:40:00Z,28.1910,-88.4960,48.2,1.9,279.0,99.0,'11111222,11111222,11144222' 
ADCP,ioos:station:wmo:42887:1,2011-07-01T08:00:00Z,28.1910,-88.4960,48.2,2.7,278.0,99.0,'11111222,11111222,11144222' 
ADCP,ioos:station:wmo:42887:1,2011-07-01T08:20:00Z,28.1910,-88.4960,48.2,3.4,286.0,99.0,'11111222,11111222,11144222' 
ADCP,ioos:station:wmo:42887:1,2011-07-01T08:40:00Z,28.1910,-88.4960,48.2,3.8,300.0,99.0,'11111222,11111222,11144222' 
ADCP,ioos:station:wmo:42887:1,2011-07-01T09:00:00Z,28.1910,-88.4960,48.2,4.5,296.0,99.0,'11111222,11111222,11144222' 
ADCP,ioos:station:wmo:42887:1,2011-07-01T09:20:00Z,28.1910,-88.4960,48.2,4.1,287.0,99.0,'11111222,11111222,11144222' 
ADCP,ioos:station:wmo:42887:1,2011-07-01T09:40:00Z,28.1910,-88.4960,48.2,4.5,296.0,99.0,'11111222,11111222,11144222' 
ADCP,ioos:station:wmo:42887:1,2011-07-01T10:00:00Z,28.1910,-88.4960,48.2,5.4,298.0,99.0,'11111222,11111222,11144222' 
ADCP,ioos:station:wmo:42887:1,2011-07-01T10:20:00Z,28.1910,-88.4960,48.2,5.3,308.0,99.0,'11111222,11111222,11144222' 
ADCP,ioos:station:wmo:42887:1,2011-07-01T10:40:00Z,28.1910,-88.4960,48.2,5.0,314.0,99.0,'11111222,11111222,11144222' 
ADCP,ioos:station:wmo:42887:1,2011-07-01T11:00:00Z,28.1910,-88.4960,48.2,4.7,331.0,99.0,'11111222,11111222,11144222' 
ADCP,ioos:station:wmo:42887:1,2011-07-01T11:20:00Z,28.1910,-88.4960,48.2,4.4,349.0,99.0,'11111222,11111222,11144222' 
ADCP,ioos:station:wmo:42887:1,2011-07-01T11:40:00Z,28.1910,-88.4960,48.2,4.0,324.0,99.0,'11111222,11111222,11144222' 
ADCP,ioos:station:wmo:42887:1,2011-07-01T12:00:00Z,28.1910,-88.4960,48.2,4.0,357.0,99.0,'11111222,11111222,11144222' 
ADCP,ioos:station:wmo:42887:1,2011-07-01T12:20:00Z,28.1910,-88.4960,48.2,3.1,348.0,99.0,'11111222,11111222,11144222' 
ADCP,ioos:station:wmo:42887:1,2011-07-01T12:40:00Z,28.1910,-88.4960,48.2,3.3,342.0,99.0,'11111222,11111222,11144222' 
ADCP,ioos:station:wmo:42887:1,2011-07-01T13:00:00Z,28.1910,-88.4960,48.2,3.5,342.0,99.0,'11111222,11111222,11144222' 
ADCP,ioos:station:wmo:42887:1,2011-07-01T13:20:00Z,28.1910,-88.4960,48.2,4.9,343.0,99.0,'11111222,11111222,11144222' 
ADCP,ioos:station:wmo:42887:1,2011-07-01T13:40:00Z,28.1910,-88.4960,48.2,2.5,4.0,99.0,'11111222,11111222,11144222' 
ADCP,ioos:station:wmo:42887:1,2011-07-01T14:00:00Z,28.1910,-88.4960,48.2,4.4,354.0,99.0,'11111222,11111222,11144222' 
ADCP,ioos:station:wmo:42887:1,2011-07-01T14:20:00Z,28.1910,-88.4960,48.2,3.4,9.0,99.0,'11111222,11111222,11144222' 
ADCP,ioos:station:wmo:42887:1,2011-07-01T14:40:00Z,28.1910,-88.4960,48.2,3.3,17.0,99.0,'11111222,11111222,11144222' 
ADCP,ioos:station:wmo:42887:1,2011-07-01T15:00:00Z,28.1910,-88.4960,48.2,3.0,11.0,99.0,'11111222,11111222,11144222' 
ADCP,ioos:station:wmo:42887:1,2011-07-01T15:20:00Z,28.1910,-88.4960,48.2,2.2,18.0,99.0,'11111222,11111222,11144222' 
ADCP,ioos:station:wmo:42887:1,2011-07-01T15:40:00Z,28.1910,-88.4960,48.2,2.4,16.0,99.0,'11111222,11111222,11144222' 
ADCP,ioos:station:wmo:42887:1,2011-07-01T16:00:00Z,28.1910,-88.4960,48.2,2.2,9.0,99.0,'11111222,11111222,11144222' 
ADCP,ioos:station:wmo:42887:1,2011-07-01T16:20:00Z,28.1910,-88.4960,48.2,2.4,22.0,99.0,'11111222,11111222,11144222' 
ADCP,ioos:station:wmo:42887:1,2011-07-01T16:40:00Z,28.1910,-88.4960,48.2,2.0,29.0,99.0,'11111222,11111222,11144222' 
ADCP,ioos:station:wmo:42887:1,2011-07-01T17:00:00Z,28.1910,-88.4960,48.2,0.1,10.0,99.0,'11111222,11111222,11144222' 
ADCP,ioos:station:wmo:42887:1,2011-07-01T17:20:00Z,28.1910,-88.4960,48.2,0.6,26.0,99.0,'11111222,11111222,11144222' 
ADCP,ioos:station:wmo:42887:1,2011-07-01T17:40:00Z,28.1910,-88.4960,48.2,0.0,269.0,99.0,'11111222,11111222,11144222' 
ADCP,ioos:station:wmo:42887:1,2011-07-01T18:00:00Z,28.1910,-88.4960,48.2,1.0,275.0,99.0,'11111222,11111222,11144222' 
ADCP,ioos:station:wmo:42887:1,2011-07-01T18:20:00Z,28.1910,-88.4960,48.2,0.2,223.0,99.0,'11111222,11111222,11144222' 
ADCP,ioos:station:wmo:42887:1,2011-07-01T18:40:00Z,28.1910,-88.4960,48.2,2.7,293.0,99.0,'11111222,11111222,11144222' 
ADCP,ioos:station:wmo:42887:1,2011-07-01T19:00:00Z,28.1910,-88.4960,48.2,2.5,286.0,99.0,'11111222,11111222,11144222' 
ADCP,ioos:station:wmo:42887:1,2011-07-01T19:20:00Z,28.1910,-88.4960,48.2,2.5,303.0,99.0,'11111222,11111222,11144222' 
ADCP,ioos:station:wmo:42887:1,2011-07-01T19:40:00Z,28.1910,-88.4960,48.2,0.6,3.0,99.0,'11111222,11111222,11144222' 
ADCP,ioos:station:wmo:42887:1,2011-07-01T20:00:00Z,28.1910,-88.4960,48.2,1.4,333.0,99.0,'11111222,11111222,11144222' 
ADCP,ioos:station:wmo:42887:1,2011-07-01T20:20:00Z,28.1910,-88.4960,48.2,1.4,291.0,99.0,'11111222,11111222,11144222' 
ADCP,ioos:station:wmo:42887:1,2011-07-01T20:40:00Z,28.1910,-88.4960,48.2,2.5,294.0,99.0,'11111222,11111222,11144222' 
ADCP,ioos:station:wmo:42887:1,2011-07-01T21:00:00Z,28.1910,-88.4960,48.2,4.7,38.0,99.0,'11111222,11111222,11144222' 
ADCP,ioos:station:wmo:42887:1,2011-07-01T21:20:00Z,28.1910,-88.4960,48.2,4.1,20.0,99.0,'11111222,11111222,11144222' 
ADCP,ioos:station:wmo:42887:1,2011-07-01T22:00:00Z,28.1910,-88.4960,48.2,1.0,126.0,99.0,'11111222,11111222,11144222' 
ADCP,ioos:station:wmo:42887:1,2011-07-01T22:20:00Z,28.1910,-88.4960,48.2,0.4,164.0,99.0,'11111222,11111222,11144222' 
ADCP,ioos:station:wmo:42887:1,2011-07-01T23:00:00Z,28.1910,-88.4960,48.2,0.0,201.0,99.0,'11111222,11111222,11144222' 
ADCP,ioos:station:wmo:42887:1,2011-07-01T23:20:00Z,28.1910,-88.4960,48.2,0.5,281.0,99.0,'11111222,11111222,11144222' 
ADCP,ioos:station:wmo:42887:1,2011-07-01T23:40:00Z,28.1910,-88.4960,48.2,0.2,98.0,99.0,'11111222,11111222,11144222' 
ADCP,ioos:station:wmo:42887:1,2011-07-02T00:00:00Z,28.1910,-88.4960,48.2,0.1,199.0,99.0,'11111222,11111222,11144222' 
ADCP,ioos:station:wmo:42887:1,2011-07-02T00:20:00Z,28.1910,-88.4960,48.2,0.2,198.0,99.0,'11111222,11111222,11144222' 
ADCP,ioos:station:wmo:42887:1,2011-07-02T00:40:00Z,28.1910,-88.4960,48.2,0.2,263.0,99.0,'11111222,11111222,11144222' 
ADCP,ioos:station:wmo:42887:1,2011-07-02T01:00:00Z,28.1910,-88.4960,48.2,2.0,297.0,99.0,'11111222,11111222,11144222' 
ADCP,ioos:station:wmo:42887:1,2011-07-02T01:20:00Z,28.1910,-88.4960,48.2,1.0,284.0,99.0,'11111222,11111222,11144222' 
ADCP,ioos:station:wmo:42887:1,2011-07-02T01:40:00Z,28.1910,-88.4960,48.2,0.5,282.0,99.0,'11111222,11111222,11144222' 
ADCP,ioos:station:wmo:42887:1,2011-07-02T02:00:00Z,28.1910,-88.4960,48.2,0.1,3.0,99.0,'11111222,11111222,11144222' 
ADCP,ioos:station:wmo:42887:1,2011-07-02T02:20:00Z,28.1910,-88.4960,48.2,0.1,208.0,99.0,'11111222,11111222,11144222' 
ADCP,ioos:station:wmo:42887:1,2011-07-02T02:40:00Z,28.1910,-88.4960,48.2,0.4,291.0,99.0,'11111222,11111222,11144222' 
ADCP,ioos:station:wmo:42887:1,2011-07-02T03:00:00Z,28.1910,-88.4960,48.2,0.0,4.0,99.0,'11111222,11111222,11144222' 
ADCP,ioos:station:wmo:42887:1,2011-07-02T03:20:00Z,28.1910,-88.4960,48.2,0.2,247.0,99.0,'11111222,11111222,11144222' 
ADCP,ioos:station:wmo:42887:1,2011-07-02T03:40:00Z,28.1910,-88.4960,48.2,2.5,292.0,99.0,'11111222,11111222,11144222' 
ADCP,ioos:station:wmo:42887:1,2011-07-02T04:00:00Z,28.1910,-88.4960,48.2,2.1,287.0,99.0,'11111222,11111222,11144222' 
ADCP,ioos:station:wmo:42887:1,2011-07-02T04:20:00Z,28.1910,-88.4960,48.2,3.1,299.0,99.0,'11111222,11111222,11144222' 
ADCP,ioos:station:wmo:42887:1,2011-07-02T04:40:00Z,28.1910,-88.4960,48.2,3.4,295.0,99.0,'11111222,11111222,11144222' 
ADCP,ioos:station:wmo:42887:1,2011-07-02T05:00:00Z,28.1910,-88.4960,48.2,4.0,306.0,99.0,'11111222,11111222,11144222' 
ADCP,ioos:station:wmo:42887:1,2011-07-02T05:20:00Z,28.1910,-88.4960,48.2,4.2,303.0,99.0,'11111222,11111222,11144222' 
ADCP,ioos:station:wmo:42887:1,2011-07-02T05:40:00Z,28.1910,-88.4960,48.2,3.7,304.0,99.0,'11111222,11111222,11144222' 
ADCP,ioos:station:wmo:42887:1,2011-07-02T06:00:00Z,28.1910,-88.4960,48.2,3.6,339.0,99.0,'11111222,11111222,11144222' 
ADCP,ioos:station:wmo:42887:1,2011-07-02T06:20:00Z,28.1910,-88.4960,48.2,3.9,290.0,99.0,'11111222,11111222,11144222' 
ADCP,ioos:station:wmo:42887:1,2011-07-02T06:40:00Z,28.1910,-88.4960,48.2,4.0,315.0,99.0,'11111222,11111222,11144222' 
ADCP,ioos:station:wmo:42887:1,2011-07-02T07:00:00Z,28.1910,-88.4960,48.2,4.2,303.0,99.0,'11111222,11111222,11144222' 
ADCP,ioos:station:wmo:42887:1,2011-07-02T07:20:00Z,28.1910,-88.4960,48.2,3.7,298.0,99.0,'11111222,11111222,11144222' 
ADCP,ioos:station:wmo:42887:1,2011-07-02T07:40:00Z,28.1910,-88.4960,48.2,4.5,326.0,99.0,'11111222,11111222,11144222' 
ADCP,ioos:station:wmo:42887:1,2011-07-02T08:00:00Z,28.1910,-88.4960,48.2,4.7,306.0,99.0,'11111222,11111222,11144222' 
ADCP,ioos:station:wmo:42887:1,2011-07-02T08:20:00Z,28.1910,-88.4960,48.2,3.8,329.0,99.0,'11111222,11111222,11144222' 
ADCP,ioos:station:wmo:42887:1,2011-07-02T09:00:00Z,28.1910,-88.4960,48.2,3.7,322.0,99.0,'11111222,11111222,11144222' 
ADCP,ioos:station:wmo:42887:1,2011-07-02T09:20:00Z,28.1910,-88.4960,48.2,4.5,319.0,99.0,'11111222,11111222,11144222' 
ADCP,ioos:station:wmo:42887:1,2011-07-02T09:40:00Z,28.1910,-88.4960,48.2,4.5,340.0,99.0,'11111222,11111222,11144222' 
ADCP,ioos:station:wmo:42887:1,2011-07-02T10:00:00Z,28.1910,-88.4960,48.2,4.4,342.0,99.0,'11111222,11111222,11144222' 
ADCP,ioos:station:wmo:42887:1,2011-07-02T10:20:00Z,28.1910,-88.4960,48.2,4.7,355.0,99.0,'11111222,11111222,11144222' 
ADCP,ioos:station:wmo:42887:1,2011-07-02T10:40:00Z,28.1910,-88.4960,48.2,2.8,347.0,99.0,'11111222,11111222,11144222' 
ADCP,ioos:station:wmo:42887:1,2011-07-02T11:00:00Z,28.1910,-88.4960,48.2,2.5,1.0,99.0,'11111222,11111222,11144222' 
ADCP,ioos:station:wmo:42887:1,2011-07-02T11:40:00Z,28.1910,-88.4960,48.2,2.9,356.0,99.0,'11111222,11111222,11144222' 
ADCP,ioos:station:wmo:42887:1,2011-07-02T12:00:00Z,28.1910,-88.4960,48.2,4.8,357.0,99.0,'11111222,11111222,11144222' 
ADCP,ioos:station:wmo:42887:1,2011-07-02T12:20:00Z,28.1910,-88.4960,48.2,4.8,336.0,99.0,'11111222,11111222,11144222' 
ADCP,ioos:station:wmo:42887:1,2011-07-02T12:40:00Z,28.1910,-88.4960,48.2,2.7,348.0,99.0,'11111222,11111222,11144222' 
ADCP,ioos:station:wmo:42887:1,2011-07-02T13:00:00Z,28.1910,-88.4960,48.2,3.9,1.0,99.0,'11111222,11111222,11144222' 
ADCP,ioos:station:wmo:42887:1,2011-07-02T13:20:00Z,28.1910,-88.4960,48.2,3.9,346.0,99.0,'11111222,11111222,11144222' 
ADCP,ioos:station:wmo:42887:1,2011-07-02T13:40:00Z,28.1910,-88.4960,48.2,4.7,320.0,99.0,'11111222,11111222,11144222' 
ADCP,ioos:station:wmo:42887:1,2011-07-02T14:00:00Z,28.1910,-88.4960,48.2,4.0,5.0,99.0,'11111222,11111222,11144222' 
ADCP,ioos:station:wmo:42887:1,2011-07-02T14:20:00Z,28.1910,-88.4960,48.2,3.2,7.0,99.0,'11111222,11111222,11144222' 
ADCP,ioos:station:wmo:42887:1,2011-07-02T14:40:00Z,28.1910,-88.4960,48.2,3.7,10.0,99.0,'11111222,11111222,11144222' 
ADCP,ioos:station:wmo:42887:1,2011-07-02T15:00:00Z,28.1910,-88.4960,48.2,3.5,2.0,99.0,'11111222,11111222,11144222' 
ADCP,ioos:station:wmo:42887:1,2011-07-02T15:20:00Z,28.1910,-88.4960,48.2,2.8,349.0,99.0,'11111222,11111222,11144222' 
ADCP,ioos:station:wmo:42887:1,2011-07-02T15:40:00Z,28.1910,-88.4960,48.2,3.6,355.0,99.0,'11111222,11111222,11144222' 
ADCP,ioos:station:wmo:42887:1,2011-07-02T16:00:00Z,28.1910,-88.4960,48.2,3.7,2.0,99.0,'11111222,11111222,11144222' 
ADCP,ioos:station:wmo:42887:1,2011-07-02T16:20:00Z,28.1910,-88.4960,48.2,7.6,359.0,99.0,'11111222,11111222,11144222' 
ADCP,ioos:station:wmo:42887:1,2011-07-02T16:40:00Z,28.1910,-88.4960,48.2,17.3,62.0,99.0,'11111222,11111222,11144222' 
ADCP,ioos:station:wmo:42887:1,2011-07-02T17:00:00Z,28.1910,-88.4960,48.2,2.3,67.0,99.0,'11111222,11111222,11144222' 
ADCP,ioos:station:wmo:42887:1,2011-07-02T17:20:00Z,28.1910,-88.4960,48.2,3.1,55.0,99.0,'11111222,11111222,11144222' 
ADCP,ioos:station:wmo:42887:1,2011-07-02T17:40:00Z,28.1910,-88.4960,48.2,2.2,33.0,99.0,'11111222,11111222,11144222' 
ADCP,ioos:station:wmo:42887:1,2011-07-02T18:00:00Z,28.1910,-88.4960,48.2,1.7,60.0,99.0,'11111222,11111222,11144222' 
ADCP,ioos:station:wmo:42887:1,2011-07-02T18:20:00Z,28.1910,-88.4960,48.2,2.2,53.0,99.0,'11111222,11111222,11144222' 
ADCP,ioos:station:wmo:42887:1,2011-07-02T18:40:00Z,28.1910,-88.4960,48.2,1.8,30.0,99.0,'11111222,11111222,11144222' 
ADCP,ioos:station:wmo:42887:1,2011-07-02T19:00:00Z,28.1910,-88.4960,48.2,2.1,23.0,99.0,'11111222,11111222,11144222' 
ADCP,ioos:station:wmo:42887:1,2011-07-02T19:20:00Z,28.1910,-88.4960,48.2,2.2,17.0,99.0,'11111222,11111222,11144222' 
ADCP,ioos:station:wmo:42887:1,2011-07-02T19:40:00Z,28.1910,-88.4960,48.2,2.2,16.0,99.0,'11111222,11111222,11144222' 
ADCP,ioos:station:wmo:42887:1,2011-07-02T20:00:00Z,28.1910,-88.4960,48.2,1.1,29.0,99.0,'11111222,11111222,11144222' 
ADCP,ioos:station:wmo:42887:1,2011-07-02T20:20:00Z,28.1910,-88.4960,48.2,1.9,28.0,99.0,'11111222,11111222,11144222' 
ADCP,ioos:station:wmo:42887:1,2011-07-02T20:40:00Z,28.1910,-88.4960,48.2,3.2,21.0,99.0,'11111222,11111222,11144222' 
ADCP,ioos:station:wmo:42887:1,2011-07-02T21:00:00Z,28.1910,-88.4960,48.2,2.3,25.0,99.0,'11111222,11111222,11144222' 
ADCP,ioos:station:wmo:42887:1,2011-07-02T21:20:00Z,28.1910,-88.4960,48.2,2.5,41.0,99.0,'11111222,11111222,11144222' 
ADCP,ioos:station:wmo:42887:1,2011-07-02T21:40:00Z,28.1910,-88.4960,48.2,2.2,34.0,99.0,'11111222,11111222,11144222' 
ADCP,ioos:station:wmo:42887:1,2011-07-02T22:00:00Z,28.1910,-88.4960,48.2,2.0,23.0,99.0,'11111222,11111222,11144222' 
ADCP,ioos:station:wmo:42887:1,2011-07-02T22:20:00Z,28.1910,-88.4960,48.2,2.0,28.0,99.0,'11111222,11111222,11144222' 
ADCP,ioos:station:wmo:42887:1,2011-07-02T23:00:00Z,28.1910,-88.4960,48.2,0.7,94.0,99.0,'11111222,11111222,11144222' 
ADCP,ioos:station:wmo:42887:1,2011-07-02T23:20:00Z,28.1910,-88.4960,48.2,1.2,32.0,99.0,'11111222,11111222,11144222' 
ADCP,ioos:station:wmo:42887:1,2011-07-02T23:40:00Z,28.1910,-88.4960,48.2,1.2,68.0,99.0,'11111222,11111222,11144222' 
ADCP,ioos:station:wmo:42887:1,2011-07-03T00:00:00Z,28.1910,-88.4960,48.2,0.9,45.0,99.0,'11111222,11111222,11144222' 
ADCP,ioos:station:wmo:42887:1,2011-07-03T00:20:00Z,28.1910,-88.4960,48.2,1.3,73.0,99.0,'11111222,11111222,11144222' 
ADCP,ioos:station:wmo:42887:1,2011-07-03T00:40:00Z,28.1910,-88.4960,48.2,1.3,109.0,99.0,'11111222,11111222,11144222' 
ADCP,ioos:station:wmo:42887:1,2011-07-03T01:00:00Z,28.1910,-88.4960,48.2,0.7,114.0,99.0,'11111222,11111222,11144222' 
ADCP,ioos:station:wmo:42887:1,2011-07-03T01:20:00Z,28.1910,-88.4960,48.2,0.8,114.0,99.0,'11111222,11111222,11144222' 
ADCP,ioos:station:wmo:42887:1,2011-07-03T01:40:00Z,28.1910,-88.4960,48.2,0.9,99.0,99.0,'11111222,11111222,11144222' 
ADCP,ioos:station:wmo:42887:1,2011-07-03T02:00:00Z,28.1910,-88.4960,48.2,1.1,69.0,99.0,'11111222,11111222,11144222' 
ADCP,ioos:station:wmo:42887:1,2011-07-03T02:20:00Z,28.1910,-88.4960,48.2,0.5,56.0,99.0,'11111222,11111222,11144222' 
ADCP,ioos:station:wmo:42887:1,2011-07-03T02:40:00Z,28.1910,-88.4960,48.2,1.2,73.0,99.0,'11111222,11111222,11144222' 
ADCP,ioos:station:wmo:42887:1,2011-07-03T03:00:00Z,28.1910,-88.4960,48.2,1.4,58.0,99.0,'11111222,11111222,11144222' 
ADCP,ioos:station:wmo:42887:1,2011-07-03T03:20:00Z,28.1910,-88.4960,48.2,1.6,88.0,99.0,'11111222,11111222,11144222' 
ADCP,ioos:station:wmo:42887:1,2011-07-03T03:40:00Z,28.1910,-88.4960,48.2,2.6,117.0,99.0,'11111222,11111222,11144222' 
ADCP,ioos:station:wmo:42887:1,2011-07-03T04:00:00Z,28.1910,-88.4960,48.2,2.5,128.0,99.0,'11111222,11111222,11144222' 
ADCP,ioos:station:wmo:42887:1,2011-07-03T05:00:00Z,28.1910,-88.4960,48.2,2.4,131.0,99.0,'11111222,11111222,11144222' 
ADCP,ioos:station:wmo:42887:1,2011-07-03T05:20:00Z,28.1910,-88.4960,48.2,2.6,153.0,99.0,'11111222,11111222,11144222' 
ADCP,ioos:station:wmo:42887:1,2011-07-03T05:40:00Z,28.1910,-88.4960,48.2,2.1,157.0,99.0,'11111222,11111222,11144222' 
ADCP,ioos:station:wmo:42887:1,2011-07-03T06:00:00Z,28.1910,-88.4960,48.2,2.2,161.0,99.0,'11111222,11111222,11144222' 
ADCP,ioos:station:wmo:42887:1,2011-07-03T06:20:00Z,28.1910,-88.4960,48.2,2.4,164.0,99.0,'11111222,11111222,11144222' 
ADCP,ioos:station:wmo:42887:1,2011-07-03T06:40:00Z,28.1910,-88.4960,48.2,2.3,163.0,99.0,'11111222,11111222,11144222' 
ADCP,ioos:station:wmo:42887:1,2011-07-03T07:00:00Z,28.1910,-88.4960,48.2,2.3,162.0,99.0,'11111222,11111222,11144222' 
ADCP,ioos:station:wmo:42887:1,2011-07-03T07:20:00Z,28.1910,-88.4960,48.2,1.7,165.0,99.0,'11111222,11111222,11144222' 
ADCP,ioos:station:wmo:42887:1,2011-07-03T07:40:00Z,28.1910,-88.4960,48.2,1.4,130.0,99.0,'11111222,11111222,11144222' 
ADCP,ioos:station:wmo:42887:1,2011-07-03T08:00:00Z,28.1910,-88.4960,48.2,1.0,115.0,99.0,'11111222,11111222,11144222' 
ADCP,ioos:station:wmo:42887:1,2011-07-03T08:20:00Z,28.1910,-88.4960,48.2,0.9,138.0,99.0,'11111222,11111222,11144222' 
ADCP,ioos:station:wmo:42887:1,2011-07-03T08:40:00Z,28.1910,-88.4960,48.2,0.9,118.0,99.0,'11111222,11111222,11144222' 
ADCP,ioos:station:wmo:42887:1,2011-07-03T09:00:00Z,28.1910,-88.4960,48.2,0.9,118.0,99.0,'11111222,11111222,11144222' 
ADCP,ioos:station:wmo:42887:1,2011-07-03T09:20:00Z,28.1910,-88.4960,48.2,0.8,115.0,99.0,'11111222,11111222,11144222' 
ADCP,ioos:station:wmo:42887:1,2011-07-03T09:40:00Z,28.1910,-88.4960,48.2,1.4,68.0,99.0,'11111222,11111222,11144222' 
ADCP,ioos:station:wmo:42887:1,2011-07-03T10:00:00Z,28.1910,-88.4960,48.2,1.4,37.0,99.0,'11111222,11111222,11144222' 
ADCP,ioos:station:wmo:42887:1,2011-07-03T10:20:00Z,28.1910,-88.4960,48.2,1.3,45.0,99.0,'11111222,11111222,11144222' 
ADCP,ioos:station:wmo:42887:1,2011-07-03T10:40:00Z,28.1910,-88.4960,48.2,2.2,26.0,99.0,'11111222,11111222,11144222' 
ADCP,ioos:station:wmo:42887:1,2011-07-03T11:00:00Z,28.1910,-88.4960,48.2,2.1,37.0,99.0,'11111222,11111222,11144222' 
ADCP,ioos:station:wmo:42887:1,2011-07-03T11:20:00Z,28.1910,-88.4960,48.2,2.1,33.0,99.0,'11111222,11111222,11144222' 
ADCP,ioos:station:wmo:42887:1,2011-07-03T11:40:00Z,28.1910,-88.4960,48.2,2.6,36.0,99.0,'11111222,11111222,11144222' 
ADCP,ioos:station:wmo:42887:1,2011-07-03T12:00:00Z,28.1910,-88.4960,48.2,2.4,38.0,99.0,'11111222,11111222,11144222' 
ADCP,ioos:station:wmo:42887:1,2011-07-03T12:20:00Z,28.1910,-88.4960,48.2,2.6,70.0,99.0,'11111222,11111222,11144222' 
ADCP,ioos:station:wmo:42887:1,2011-07-03T12:40:00Z,28.1910,-88.4960,48.2,3.3,78.0,99.0,'11111222,11111222,11144222' 
ADCP,ioos:station:wmo:42887:1,2011-07-03T13:00:00Z,28.1910,-88.4960,48.2,3.3,72.0,99.0,'11111222,11111222,11144222' 
ADCP,ioos:station:wmo:42887:1,2011-07-03T13:20:00Z,28.1910,-88.4960,48.2,3.3,73.0,99.0,'11111222,11111222,11144222' 
ADCP,ioos:station:wmo:42887:1,2011-07-03T13:40:00Z,28.1910,-88.4960,48.2,3.6,73.0,99.0,'11111222,11111222,11144222' 
ADCP,ioos:station:wmo:42887:1,2011-07-03T14:00:00Z,28.1910,-88.4960,48.2,3.1,84.0,99.0,'11111222,11111222,11144222' 
ADCP,ioos:station:wmo:42887:1,2011-07-03T14:20:00Z,28.1910,-88.4960,48.2,2.2,84.0,99.0,'11111222,11111222,11144222' 
ADCP,ioos:station:wmo:42887:1,2011-07-03T14:40:00Z,28.1910,-88.4960,48.2,3.8,76.0,99.0,'11111222,11111222,11144222' 
ADCP,ioos:station:wmo:42887:1,2011-07-03T15:00:00Z,28.1910,-88.4960,48.2,3.8,72.0,99.0,'11111222,11111222,11144222' 
ADCP,ioos:station:wmo:42887:1,2011-07-03T15:20:00Z,28.1910,-88.4960,48.2,3.4,71.0,99.0,'11111222,11111222,11144222' 
ADCP,ioos:station:wmo:42887:1,2011-07-03T15:40:00Z,28.1910,-88.4960,48.2,3.9,55.0,99.0,'11111222,11111222,11144222' 
ADCP,ioos:station:wmo:42887:1,2011-07-03T16:00:00Z,28.1910,-88.4960,48.2,3.7,74.0,99.0,'11111222,11111222,11144222' 
ADCP,ioos:station:wmo:42887:1,2011-07-03T16:20:00Z,28.1910,-88.4960,48.2,4.1,77.0,99.0,'11111222,11111222,11144222' 
ADCP,ioos:station:wmo:42887:1,2011-07-03T16:40:00Z,28.1910,-88.4960,48.2,2.9,83.0,99.0,'11111222,11111222,11144222' 
ADCP,ioos:station:wmo:42887:1,2011-07-03T17:00:00Z,28.1910,-88.4960,48.2,4.5,75.0,99.0,'11111222,11111222,11144222' 
ADCP,ioos:station:wmo:42887:1,2011-07-03T17:20:00Z,28.1910,-88.4960,48.2,4.2,87.0,99.0,'11111222,11111222,11144222' 
ADCP,ioos:station:wmo:42887:1,2011-07-03T17:40:00Z,28.1910,-88.4960,48.2,3.7,99.0,99.0,'11111222,11111222,11144222' 
ADCP,ioos:station:wmo:42887:1,2011-07-03T18:00:00Z,28.1910,-88.4960,48.2,2.9,96.0,99.0,'11111222,11111222,11144222' 
ADCP,ioos:station:wmo:42887:1,2011-07-03T18:20:00Z,28.1910,-88.4960,48.2,2.5,97.0,99.0,'11111222,11111222,11144222' 
ADCP,ioos:station:wmo:42887:1,2011-07-03T18:40:00Z,28.1910,-88.4960,48.2,1.8,103.0,99.0,'11111222,11111222,11144222' 
ADCP,ioos:station:wmo:42887:1,2011-07-03T19:00:00Z,28.1910,-88.4960,48.2,2.9,91.0,99.0,'11111222,11111222,11144222' 
ADCP,ioos:station:wmo:42887:1,2011-07-03T19:20:00Z,28.1910,-88.4960,48.2,2.6,78.0,99.0,'11111222,11111222,11144222' 
ADCP,ioos:station:wmo:42887:1,2011-07-03T19:40:00Z,28.1910,-88.4960,48.2,2.2,88.0,99.0,'11111222,11111222,11144222' 
ADCP,ioos:station:wmo:42887:1,2011-07-03T20:00:00Z,28.1910,-88.4960,48.2,3.5,74.0,99.0,'11111222,11111222,11144222' 
ADCP,ioos:station:wmo:42887:1,2011-07-03T20:20:00Z,28.1910,-88.4960,48.2,3.4,96.0,99.0,'11111222,11111222,11144222' 
ADCP,ioos:station:wmo:42887:1,2011-07-03T20:40:00Z,28.1910,-88.4960,48.2,2.9,87.0,99.0,'11111222,11111222,11144222' 
ADCP,ioos:station:wmo:42887:1,2011-07-03T21:00:00Z,28.1910,-88.4960,48.2,3.3,96.0,99.0,'11111222,11111222,11144222' 
ADCP,ioos:station:wmo:42887:1,2011-07-03T21:20:00Z,28.1910,-88.4960,48.2,3.3,103.0,99.0,'11111222,11111222,11144222' 
ADCP,ioos:station:wmo:42887:1,2011-07-03T22:00:00Z,28.1910,-88.4960,48.2,2.2,107.0,99.0,'11111222,11111222,11144222' 
ADCP,ioos:station:wmo:42887:1,2011-07-03T22:20:00Z,28.1910,-88.4960,48.2,3.3,89.0,99.0,'11111222,11111222,11144222' 